METAR Formatted Surface Weather Observation
Issued by NWS Jackson, MS

Home | Current Version | Previous Version | Text Only | Print | Product List | Glossary On
Versions: 1 2 3 4 5 6 7 8 9 10 11 12 13 14 15 16 17 18 19 20 21 22 23 24 25 26 27 28 29 30 31 32 33 34 35 36 37 38 39 40 41 42 43 44 45 46 47 48 49 50
000
SAUS44 KMEG 251833
MTRTUP
SPECI KTUP 251832Z 17007KT 10SM BKN008 BKN037 BKN060 22/20 A3012 RMK
AO2 RAB09E25 CIG 005V011 P0001 T02220200



USA.gov is the U.S. government's official web portal to all federal, state and local government web resources and services.